• In Uzbekistan
  • List of Countries
  • For 7 days
  • Water Temperature
  • Satellite Maps
  • Weather Map
  • Weather Widgets
  • user-avatar
    Login

    Hourly Weather Cerquilho

    Today, 25 June, Monday

    Time Temperature Precipitation Wind Pressure Humidity
    00:00 +19°C° 0 mm 2 mps 715 mmHg 74%
    01:00 +19°C° 0 mm 2 mps 714 mmHg 76%
    02:00 +18°C° 0 mm 2 mps 714 mmHg 78%
    03:00 +19°C° 0 mm 1 mps 714 mmHg 80%
    04:00 +19°C° 0 mm 1 mps 714 mmHg 81%
    05:00 +18°C° 0 mm 1 mps 714 mmHg 82%
    06:00 +18°C° 0 mm 1 mps 714 mmHg 83%
    07:00 +19°C° 0 mm 1 mps 714 mmHg 78%
    08:00 +20°C° 0 mm 1 mps 715 mmHg 74%
    09:00 +21°C° 0 mm 2 mps 715 mmHg 69%
    10:00 +23°C° 0 mm 2 mps 715 mmHg 64%
    11:00 +25°C° 0 mm 2 mps 715 mmHg 58%
    12:00 +27°C° 0 mm 2 mps 715 mmHg 53%
    13:00 +27°C° 0 mm 3 mps 715 mmHg 51%
    14:00 +27°C° 0 mm 3 mps 714 mmHg 49%
    15:00 +28°C° 0 mm 3 mps 714 mmHg 47%
    16:00 +26°C° 0 mm 2 mps 714 mmHg 52%
    17:00 +25°C° 0 mm 2 mps 713 mmHg 56%
    18:00 +23°C° 0 mm 1 mps 713 mmHg 60%
    19:00 +23°C° 0 mm 1 mps 714 mmHg 62%
    20:00 +22°C° 0 mm 1 mps 714 mmHg 63%
    21:00 +21°C° 0 mm 1 mps 714 mmHg 65%
    22:00 +21°C° 0 mm 1 mps 714 mmHg 67%
    23:00 +20°C° 0 mm 1 mps 714 mmHg 68%

    Tomorrow, 26 June, Tuesday

    Time Temperature Precipitation Wind Pressure Humidity
    00:00 +20°C° 0 mm 1 mps 714 mmHg 70%
    01:00 +20°C° 0 mm 1 mps 714 mmHg 72%
    02:00 +19°C° 0 mm 1 mps 713 mmHg 74%
    03:00 +19°C° 0 mm 1 mps 713 mmHg 75%
    04:00 +18°C° 0 mm 1 mps 713 mmHg 77%
    05:00 +18°C° 0 mm 1 mps 713 mmHg 78%
    06:00 +18°C° 0 mm 1 mps 713 mmHg 80%
    07:00 +19°C° 0 mm 1 mps 713 mmHg 76%
    08:00 +19°C° 0 mm 2 mps 714 mmHg 72%
    09:00 +21°C° 0 mm 2 mps 714 mmHg 69%
    10:00 +23°C° 0 mm 2 mps 714 mmHg 62%
    11:00 +25°C° 0 mm 2 mps 714 mmHg 56%
    12:00 +27°C° 0 mm 2 mps 715 mmHg 49%
    13:00 +27°C° 0 mm 2 mps 714 mmHg 48%
    14:00 +28°C° 0 mm 2 mps 713 mmHg 46%
    15:00 +28°C° 0 mm 2 mps 713 mmHg 44%
    16:00 +26°C° 0 mm 2 mps 713 mmHg 49%
    17:00 +25°C° 0 mm 1 mps 713 mmHg 53%
    18:00 +21°C° 0 mm 0 mps 713 mmHg 58%
    19:00 +22°C° 0 mm 1 mps 713 mmHg 59%
    20:00 +22°C° 0 mm 1 mps 713 mmHg 61%
    21:00 +21°C° 0 mm 1 mps 714 mmHg 62%
    22:00 +21°C° 0 mm 1 mps 714 mmHg 64%
    23:00 +20°C° 0 mm 1 mps 714 mmHg 66%

    Day after tomorrow, 27 June, Wednesday

    Time Temperature Precipitation Wind Pressure Humidity
    00:00 +20°C° 0 mm 1 mps 714 mmHg 68%
    01:00 +19°C° 0 mm 1 mps 714 mmHg 70%
    02:00 +19°C° 0 mm 1 mps 713 mmHg 72%
    03:00 +18°C° 0 mm 1 mps 713 mmHg 74%
    04:00 +18°C° 0 mm 1 mps 713 mmHg 75%
    05:00 +18°C° 0 mm 1 mps 713 mmHg 76%
    06:00 +18°C° 0 mm 1 mps 713 mmHg 78%
    07:00 +18°C° 0 mm 2 mps 714 mmHg 74%
    08:00 +19°C° 0 mm 2 mps 715 mmHg 71%
    09:00 +21°C° 0 mm 2 mps 715 mmHg 67%
    10:00 +23°C° 0 mm 2 mps 715 mmHg 62%
    11:00 +25°C° 0 mm 2 mps 715 mmHg 57%
    12:00 +27°C° 0 mm 3 mps 716 mmHg 52%
    13:00 +27°C° 0 mm 2 mps 715 mmHg 50%
    14:00 +28°C° 0 mm 2 mps 715 mmHg 49%
    15:00 +28°C° 0 mm 2 mps 714 mmHg 47%
    16:00 +27°C° 0 mm 2 mps 714 mmHg 52%
    17:00 +25°C° 0 mm 1 mps 714 mmHg 57%
    18:00 +23°C° 0 mm 1 mps 714 mmHg 62%
    19:00 +23°C° 0 mm 1 mps 715 mmHg 63%
    20:00 +22°C° 0 mm 1 mps 715 mmHg 65%
    21:00 +22°C° 0 mm 1 mps 715 mmHg 67%
    22:00 +21°C° 0 mm 1 mps 715 mmHg 68%
    23:00 +21°C° 0 mm 1 mps 715 mmHg 69%

    28 June, Thursday

    Time Temperature Precipitation Wind Pressure Humidity
    00:00 +21°C° 0 mm 1 mps 715 mmHg 70%
    01:00 +20°C° 0 mm 1 mps 715 mmHg 71%
    02:00 +20°C° 0 mm 1 mps 715 mmHg 72%
    03:00 +20°C° 0 mm 1 mps 715 mmHg 73%
    04:00 +19°C° 0 mm 1 mps 715 mmHg 74%
    05:00 +19°C° 0 mm 1 mps 715 mmHg 74%
    06:00 +19°C° 0 mm 1 mps 715 mmHg 75%
    07:00 +20°C° 0 mm 1 mps 716 mmHg 72%
    08:00 +21°C° 0 mm 1 mps 716 mmHg 70%
    09:00 +22°C° 0 mm 1 mps 717 mmHg 68%
    10:00 +24°C° 0 mm 1 mps 717 mmHg 62%
    11:00 +25°C° 0 mm 1 mps 717 mmHg 56%
    12:00 +27°C° 0 mm 1 mps 717 mmHg 51%
    13:00 +27°C° 0 mm 1 mps 716 mmHg 50%
    14:00 +28°C° 0 mm 1 mps 716 mmHg 48%
    15:00 +28°C° 0 mm 1 mps 715 mmHg 47%
    16:00 +27°C° 0 mm 1 mps 715 mmHg 52%
    17:00 +25°C° 0 mm 1 mps 715 mmHg 56%
    18:00 +24°C° 0 mm 1 mps 715 mmHg 61%
    19:00 +23°C° 0 mm 2 mps 715 mmHg 64%
    20:00 +23°C° 0 mm 2 mps 716 mmHg 66%
    21:00 +21°C° 0 mm 3 mps 716 mmHg 69%
    22:00 +20°C° 0 mm 2 mps 716 mmHg 72%
    23:00 +20°C° 0 mm 2 mps 716 mmHg 74%

    29 June, Friday

    Time Temperature Precipitation Wind Pressure Humidity
    00:00 +19°C° 0 mm 2 mps 716 mmHg 77%
    01:00 +19°C° 0 mm 2 mps 715 mmHg 78%
    02:00 +18°C° 0 mm 2 mps 715 mmHg 78%
    03:00 +18°C° 0 mm 2 mps 715 mmHg 79%
    04:00 +18°C° 0 mm 2 mps 715 mmHg 80%
    05:00 +17°C° 0 mm 2 mps 715 mmHg 80%
    06:00 +17°C° 0 mm 2 mps 715 mmHg 80%
    07:00 +18°C° 0 mm 2 mps 715 mmHg 76%
    08:00 +19°C° 0 mm 2 mps 716 mmHg 72%
    09:00 +21°C° 0 mm 3 mps 716 mmHg 67%
    10:00 +22°C° 0 mm 3 mps 716 mmHg 62%
    11:00 +25°C° 0 mm 3 mps 716 mmHg 56%
    12:00 +26°C° 0 mm 3 mps 716 mmHg 50%
    13:00 +27°C° 0 mm 3 mps 715 mmHg 48%
    14:00 +27°C° 0 mm 3 mps 715 mmHg 47%
    15:00 +28°C° 0 mm 2 mps 714 mmHg 45%
    16:00 +26°C° 0 mm 2 mps 714 mmHg 49%
    17:00 +24°C° 0 mm 1 mps 714 mmHg 54%
    18:00 +23°C° 0 mm 1 mps 714 mmHg 58%
    19:00 +22°C° 0 mm 1 mps 715 mmHg 60%
    20:00 +21°C° 0 mm 1 mps 715 mmHg 61%
    21:00 +21°C° 0 mm 1 mps 715 mmHg 63%
    22:00 +20°C° 0 mm 1 mps 715 mmHg 65%
    23:00 +20°C° 0 mm 1 mps 715 mmHg 67%

    30 June, Saturday

    Time Temperature Precipitation Wind Pressure Humidity
    00:00 +19°C° 0 mm 1 mps 714 mmHg 69%
    01:00 +19°C° 0 mm 1 mps 714 mmHg 71%
    02:00 +18°C° 0 mm 1 mps 714 mmHg 74%
    03:00 +18°C° 0 mm 1 mps 714 mmHg 76%
    04:00 +16°C° 0 mm 1 mps 714 mmHg 77%
    05:00 +16°C° 0 mm 1 mps 714 mmHg 78%
    06:00 +16°C° 0 mm 1 mps 714 mmHg 80%
    07:00 +18°C° 0 mm 1 mps 714 mmHg 75%
    08:00 +18°C° 0 mm 2 mps 714 mmHg 70%
    09:00 +20°C° 0 mm 2 mps 715 mmHg 66%
    10:00 +21°C° 0 mm 2 mps 715 mmHg 60%
    11:00 +24°C° 0 mm 2 mps 715 mmHg 55%
    12:00 +26°C° 0 mm 2 mps 715 mmHg 50%
    13:00 +26°C° 0 mm 2 mps 714 mmHg 48%
    14:00 +27°C° 0 mm 2 mps 714 mmHg 47%
    15:00 +27°C° 0 mm 1 mps 713 mmHg 46%
    16:00 +26°C° 0 mm 1 mps 713 mmHg 51%
    17:00 +24°C° 0 mm 1 mps 713 mmHg 55%
    18:00 +20°C° 0 mm 0 mps 713 mmHg 60%
    19:00 +22°C° 0 mm 1 mps 713 mmHg 62%
    20:00 +21°C° 0 mm 1 mps 714 mmHg 64%
    21:00 +21°C° 0 mm 1 mps 714 mmHg 66%
    22:00 +20°C° 0 mm 1 mps 714 mmHg 67%
    23:00 +20°C° 0 mm 1 mps 714 mmHg 69%
    Show more